Terug naar catalogus

STARLINK-32403

ActiefCommunicatieVLEO
NORAD 61629·PAYLOAD·🇺🇸 United States

Gelanceerd Oct 23, 2024 vanaf Cape Canaveral Space Force Station

Loading…

Volgende Passages (komende 24 uur)

TLE

VersSource: CelesTrak SupGP

Epoch: Sep 14, 2026, 21:20 UTC

1 61629C 24191J   26257.88937500 -.00024478  00000+0 -88661-3 0  2578
2 61629  42.9994 165.9816 0001212 258.7972  52.5323 15.27589478    12

Volg STARLINK-32403 in realtime met AllMySat

Download on the App Store